Simultaneous Nadir Overpasses (SNOs) Predictions

Prediction of SNOs between LANDSAT-8 and NOAA-19 Satellite Orbit:

Table of predicted SNOs for the next 14.0 days since TLE Epoch: 10/21/2023
Index Date (LANDSAT-8) Time (LANDSAT-8) Lat,Lon (LANDSAT-8) SZA (LANDSAT-8 ) Date (NOAA-19) Time (NOAA-19) Lat,Lon (NOAA-19) SZA (NOAA-19 ) Distance(km) Time Diff (sec)
1 10/22/2023 07:44:04 80.92, 101.05 94.05 10/22/2023 07:43:22 80.91, 100.91 94.01 2.46 42
2 10/22/2023 08:33:31 -80.92, -91.34 85.95 10/22/2023 08:34:18 -80.92, -91.42 85.93 1.40 47
3 10/24/2023 14:07:16 80.92, 5.20 94.84 10/24/2023 14:06:40 80.92, 5.31 94.84 1.86 36
4 10/24/2023 14:56:43 -80.92, 172.84 85.15 10/24/2023 14:57:36 -80.92, 172.80 85.13 0.77 53
5 10/26/2023 20:30:27 80.93, -90.48 95.64 10/26/2023 20:29:58 80.92, -90.38 95.63 1.96 29
6 10/26/2023 21:19:54 -80.93, 77.17 84.35 10/26/2023 21:20:53 -80.92, 77.32 84.31 2.61 59
7 10/29/2023 02:53:38 80.92, 173.65 96.39 10/29/2023 02:53:17 80.91, 173.48 96.36 3.20 21
8 10/29/2023 03:43:05 -80.92, -18.68 83.60 10/29/2023 03:44:11 -80.92, -18.61 83.56 1.33 66
9 10/31/2023 09:16:49 80.90, 77.60 97.09 10/31/2023 09:16:35 80.91, 77.62 97.10 1.22 14
10 10/31/2023 10:06:15 -80.93,-114.37 82.84 10/31/2023 10:07:28 -80.92,-114.23 82.80 2.63 73



Historial Predications of SNOs between LANDSAT-8 and NOAA-19
